Location: Auckland
(36.8670°S, 174.7670°E)
Time: 12:49:05
(UTC+12:00)

A-11 Canister half - Pass Details

Date: 27 July 2019
Orbit: 1526 x 1683 km, 47.3° (Epoch: 19 August)

Event Time Altitude Azimuth Distance (km) Brightness Sun altitude
Rises 07:14:02 0° 305° (NW) 4,671 11.2 -2.7°
Reaches altitude 10° 07:17:02 10° 304° (NW) 3,695 10.7 -2.1°
Maximum altitude 07:26:24 88° 214° (SW) 1,555 9.1 -0.4°
Drops below altitude 10° 07:36:01 10° 123° (ESE) 3,792 11.6 1.3°
Sets 07:39:09 0° 122° (ESE) 4,799 12.1 1.9°
